AirNav   ProFlight Series 2 Aviation Headset
 
 995 users online  

76PN Heritage Valley Beaver Heliport
Beaver, Pennsylvania, USA

GOING TO BEAVER?


FAA INFORMATION EFFECTIVE 18 JUNE 2020

Location

FAA Identifier: 76PN
Lat/Long: 40-42-40.8200N 080-19-18.8200W
40-42.680333N 080-19.313667W
40.7113389,-80.3218944
(estimated)
Elevation: 1132 ft. / 345.0 m (surveyed)
Variation: 07W (1985)
From city: 1 mile NW of BEAVER, PA
Time zone: UTC -4 (UTC -5 during Standard Time)
Zip code: 15009

Heliport Operations

Heliport use: Private use. Permission required prior to landing
Activation date: 02/1982
Control tower: no
ARTCC: CLEVELAND CENTER
FSS: ALTOONA FLIGHT SERVICE STATION
Attendance: CONTINUOUS
Wind indicator: yes
Segmented circle: no
Lights: FOR HELI LGTS CALL 412-728-7000.
Beacon: RED/CLEAR/GREEN. FOR ROTG BCN CALL 412-728-7000.

Heliport Communications

WX AWOS-3PT at BVI (5 nm NW): 118.35 (724-843-1024)
WX AWOS-3PT at PJC (9 nm NE): 118.45 (724-452-5304)
WX ASOS at PIT (14 nm S): PHONE 412-472-0145
WX AWOS-3PT at BTP (17 nm E): 121.450 (724-586-6434)
WX AWOS-3PT at UCP (19 nm N): 124.175 ((724) 652-4184)

Nearby radio navigation aids

VOR radial/distance  VOR name  Freq  Var
EWCr224/8.5ELLWOOD CITY VOR/DME115.8008W
AGCr343/29.0ALLEGHENY VOR/DME110.0009W
HLGr030/29.3WHEELING VOR/DME112.2007W

 
NDB name  Hdg/Dist  Freq  Var  ID
CASTLE176/19.227209WUCP ..- -.-. .--.

Heliport Services

Runway Information

Helipad H1

Dimensions: 65 x 65 ft. / 20 x 20 m
Surface: concrete
Runway edge lights: low intensity
Latitude: 40-42.680333N
INGRESS/EGRESS 270/090 AND 020/200.
Longitude: 080-19.313667W
Elevation: 1132.0 ft.
Traffic pattern: leftleft
Markings: basic

Heliport Ownership and Management from official FAA records

Ownership: Privately-owned
Owner: VALLEY MEDICAL FACILITIES INC.
1000 DUTCH RIDGE ROAD
BEAVER, PA 15009
Phone 412-728-7000
Manager: NORMAN F MITRY - CEO
1000 DUTCH RIDGE ROAD
BEAVER, PA 15009
Phone 412-728-7000

Additional Remarks

A52-H1 17 FT BLDG 120 FT N; PLINE ONE MILE N, S, E, W OF HELI.
HEL PRKG 36 FT DIAM W SIDE HELI.
TLOF 40 FT DIAM; FATO 65 FT DIAM
HEL PARKING SPOT 36 FT DIAM ON W SIDE OF HELI.
TLOF 40 FT DIAM/FATO 65 FT DIAM.
FOR CD CTC PITTSBURGH APCH AT 412-472-5591

Instrument Procedures

There are no published instrument procedures at 76PN.

Some nearby airports with instrument procedures:

KBVI - Beaver County Airport (5 nm NW)
KPJC - Zelienople Municipal Airport (9 nm NE)
KPIT - Pittsburgh International Airport (14 nm S)
02G - Columbiana County Airport (15 nm W)
KBTP - Pittsburgh/Butler Regional Airport (17 nm E)
KUCP - New Castle Municipal Airport (19 nm N)
 
Loc | Ops | Rwys | IFR | FBO | Links
Com | Nav | Svcs | Stats | Notes
Area around 76PN (Heritage Valley Beaver Heliport)
 
Road maps at: MapQuest Bing Google
 
Aerial photo
No photo
 
Sectional chart

 
Airport distance calculator
Flying to Heritage Valley Beaver Heliport? Find the distance to fly.

From to 76PN

Sunrise and sunset
Times for 07-Jul-2020
 Local
(UTC-4)
 Zulu
(UTC)
Morning civil twilight05:2609:26
Sunrise05:5909:59
Sunset20:5400:54
Evening civil twilight21:2701:27

Current date and time
Zulu (UTC)  08-Jul-2020 00:37:58
Local (UTC-4)  07-Jul-2020 20:37:58
 
METAR
KBVI 
5nm NW 
080016Z AUTO 14003KT 5SM BR SCT065 SCT090 21/21 A3001 RMK AO2 T02140205
KPIT 
13nm S 
072351Z 00000KT 8SM -RA FEW045 FEW065 OVC110 22/20 A3000 RMK AO2 TSE07 SLP159 6//// T02220200 10339 20206 50007 PNO $
KBTP 
17nm E 
072356Z AUTO 13004KT 9SM -RA SCT055 BKN070 OVC090 21/21 A3002 RMK AO2 LTG DSNT E AND SE SLP162 P0003 6//// T02110206 10344 20211 50001
KUCP 
19nm N 
072356Z AUTO 23004KT 9SM CLR 22/21 A3001 RMK AO2 RAE04 SLP170 P0000 60062 T02220211 10339 20217 58001
TAF
KBVI 
5nm NW 
071954Z 0720/0818 23005KT P6SM VCTS BKN050CB TEMPO 0720/0723 VRB15G25KT 3SM TSRA FM080000 00000KT P6SM BKN100 FM081300 00000KT P6SM SCT180
KPIT 
13nm S 
072055Z 0721/0824 22005KT P6SM VCTS OVC050CB TEMPO 0721/0724 VRB20G30KT 1SM +TSRA OVC025CB FM080000 18004KT P6SM BKN100 FM080600 00000KT P6SM SCT200 FM081800 25003KT P6SM VCTS SCT100CB
NOTAMs
Click for the latest NOTAMs
NOTAMs are issued by the DoD/FAA and will open in a separate window not controlled by AirNav.

 

 
 

Would you like to see your business listed on this page?

 If your business provides an interesting product or service to pilots, flight crews, aircraft, or users of the Heritage Valley Beaver Heliport, you should consider listing it here.  To start the listing process, click on the button below
 
Add a business
 

Other Pages about Heritage Valley Beaver Heliport

Update a link
 
Copyright © AirNav, LLC. All rights reserved. Privacy Policy  Contact